Theta_e
277 277 276 276 276 275 276 275 275 275 275 275 275 275 275 274 274 273 273 274 274 275 277 278 277 277 277 276 278 278 279 279 277 279 283 284 285 287 290 295 302 304 305
277 277 277 276 276 275 275 275 275 273 275 274 275 274 274 273 272 272 272 273 273 275 276 276 276 276 275 275 276 275 277 279 278 277 280 282 283 286 289 293 299 304 304
276 276 276 276 275 274 275 275 275 272 271 272 273 272 272 272 271 271 272 273 274 275 276 275 275 275 274 273 275 275 276 277 278 278 278 281 282 285 286 291 296 300 302
276 275 275 275 275 274 275 274 274 273 271 270 269 270 271 270 270 272 273 273 274 275 275 275 274 274 272 273 275 274 275 274 276 277 277 278 280 283 285 286 288 294 297
275 275 275 276 275 274 274 274 273 273 272 271 269 268 268 269 271 271 273 273 273 273 273 273 274 273 274 275 275 274 274 274 275 276 275 276 277 279 280 282 283 287 291
275 275 276 275 275 274 274 273 273 272 272 271 271 269 267 269 272 274 275 273 273 272 271 271 272 272 273 275 276 277 278 276 275 274 273 273 275 278 280 280 281 282 284
272 275 275 275 274 274 273 272 272 271 271 270 270 268 263 265 271 274 275 272 270 268 268 269 270 272 271 271 274 277 278 277 277 274 272 273 275 278 279 278 280 282 283
275 275 275 275 274 274 272 271 270 270 268 266 263 261 259 262 271 273 274 268 266 265 265 266 267 267 269 273 274 273 272 273 274 275 276 277 279 279 279 280 281 282 285
274 274 274 274 272 271 271 269 267 265 263 260 263 260 258 259 269 273 272 267 268 265 265 265 267 268 273 277 273 270 270 270 274 276 278 279 279 280 280 280 281 283 283
273 273 273 272 272 270 270 268 267 262 263 263 262 261 260 258 267 271 272 270 267 266 265 267 272 272 276 277 272 270 267 267 270 271 269 270 273 274 279 279 279 282 284
271 271 271 270 270 269 267 266 264 261 262 257 258 257 258 258 259 271 273 270 266 268 269 269 267 274 276 275 275 268 268 272 268 264 266 267 269 271 273 275 276 277 282
269 269 269 267 269 269 266 265 263 261 259 257 255 258 259 259 264 270 273 274 274 271 270 269 268 275 274 273 271 272 272 269 263 262 263 264 265 267 270 271 274 277 283
267 267 266 264 267 267 265 262 261 260 260 259 258 258 259 262 262 270 272 273 274 272 271 273 273 273 271 268 269 269 265 261 261 260 260 262 264 267 269 271 273 278 282
265 265 262 262 262 261 264 264 262 259 258 260 259 259 259 261 263 265 267 268 271 272 273 266 267 268 267 267 262 263 262 261 260 260 260 262 264 266 267 269 269 272 279
264 262 260 261 261 261 262 262 263 262 263 260 260 261 260 262 265 270 272 271 272 273 270 258 261 260 260 260 260 260 259 259 259 259 259 260 262 264 265 267 268 270 277
262 264 262 262 261 262 260 260 267 270 271 271 272 271 269 272 273 273 274 274 274 274 257 252 257 258 258 258 258 258 258 258 258 258 258 259 261 262 263 265 267 268 272
261 263 263 263 262 261 261 260 259 261 268 270 271 272 271 271 272 272 273 272 273 269 251 250 254 256 256 256 256 256 256 257 257 257 257 258 261 261 262 262 264 265 267
259 260 261 262 261 260 260 260 258 256 256 256 264 266 267 269 270 270 270 269 255 257 249 249 251 253 254 254 255 255 255 255 255 256 256 257 259 260 260 261 262 263 264
257 259 260 260 260 260 258 257 255 254 254 255 257 261 262 265 266 267 267 254 251 253 249 251 252 252 252 252 252 253 253 253 254 253 255 256 258 258 259 260 261 262 264
254 256 258 258 258 256 256 256 254 254 254 254 253 256 255 254 254 254 250 249 248 250 251 250 252 250 249 251 251 250 252 252 252 253 254 256 257 258 258 259 259 260 262
255 255 256 256 256 256 256 256 256 256 256 255 255 258 262 254 257 255 249 250 251 251 252 250 252 250 249 252 250 250 251 252 252 251 253 255 256 256 258 258 259 260 261
255 255 255 254 255 255 256 256 256 256 256 256 256 256 263 259 255 255 252 253 253 251 252 251 252 252 250 252 253 250 251 251 251 249 251 254 255 256 257 257 258 259 261
257 255 255 255 255 255 254 255 256 256 256 256 256 255 256 255 253 252 251 252 252 252 251 250 250 252 250 252 252 251 251 252 252 248 250 252 254 255 256 256 257 258 260
255 255 255 254 255 255 255 256 256 256 256 256 255 255 254 255 253 252 251 252 252 252 250 250 250 251 253 252 252 251 250 250 249 248 248 251 253 255 255 256 258 258 259
255 255 255 255 255 255 255 256 256 256 255 255 255 254 253 253 252 251 251 252 252 252 251 250 250 251 252 252 251 251 252 254 253 251 247 249 252 254 255 256 257 258 259
255 256 256 255 255 255 255 255 256 255 255 255 254 254 253 252 252 251 252 252 251 252 251 250 249 250 251 252 252 254 255 259 258 257 254 252 253 255 256 256 257 258 259
Wind_Speed
5 5 6 5 6 5 4 4 3 2 3 3 4 6 7 8 8 8 8 7 9 9 8 8 10 10 7 8 8 9 11 11 15 15 15 17 22 22 22 21 19 16 14
5 5 6 6 5 5 5 5 3 3 2 3 3 5 6 8 8 9 10 9 10 11 11 10 10 10 10 10 9 12 11 13 14 23 17 17 19 22 22 24 17 15 14
4 5 5 6 6 6 6 4 4 3 3 3 2 4 5 7 8 8 8 10 10 10 10 11 11 11 11 10 12 11 11 11 13 15 17 14 16 17 20 19 19 15 12
4 5 6 6 7 6 5 5 5 4 3 3 3 3 3 5 8 7 10 9 9 9 11 11 11 10 12 13 11 13 13 13 14 14 15 15 15 17 14 15 18 14 13
5 5 7 5 6 5 5 5 5 4 4 3 3 3 3 4 5 8 9 9 9 10 10 11 10 11 18 17 12 12 14 13 13 13 15 15 15 15 17 17 15 16 15
5 7 6 5 5 6 6 6 5 5 4 3 3 2 2 5 13 16 13 8 8 9 11 11 10 11 12 22 22 24 21 15 16 14 16 17 20 16 17 15 16 15 14
4 6 6 6 6 6 6 5 6 5 3 4 2 2 5 6 14 16 17 7 5 7 9 10 11 9 12 12 20 25 20 24 26 19 20 18 20 18 19 21 18 16 16
7 6 7 6 7 6 5 6 5 4 4 3 3 3 3 6 14 16 17 5 6 7 8 9 10 12 11 17 15 15 18 16 15 14 17 18 18 21 20 20 21 21 17
7 7 8 6 6 5 6 6 4 3 3 3 3 3 3 6 15 15 14 6 8 7 7 7 9 10 17 26 18 17 18 18 19 27 31 33 35 35 29 16 14 13 15
7 8 6 6 7 6 6 6 4 3 4 3 3 4 5 6 14 15 14 6 7 6 6 6 11 13 24 28 17 15 16 18 19 22 18 21 21 21 28 15 14 14 13
6 6 6 6 6 5 4 4 4 3 2 3 4 3 5 5 9 16 16 6 5 7 7 7 3 19 26 27 26 11 15 22 20 15 14 14 14 14 12 13 14 13 14
6 7 7 5 4 4 6 4 3 3 3 3 3 4 4 5 10 13 16 16 16 8 8 6 6 21 26 26 19 24 26 21 10 11 12 12 13 14 15 15 19 18 13
8 9 7 4 5 5 5 5 3 3 4 4 3 3 5 5 5 14 16 17 17 11 7 15 16 20 22 15 19 23 16 8 10 11 12 12 12 14 18 16 16 19 13
11 9 5 5 4 3 3 4 4 4 3 5 4 5 5 4 5 5 6 8 14 11 15 3 9 15 15 14 9 11 8 8 9 10 12 13 13 12 13 12 14 14 11
10 6 4 4 4 4 5 4 5 4 6 5 5 5 5 5 5 12 11 7 7 11 5 2 5 6 7 6 7 8 8 8 9 10 11 12 13 13 13 13 12 14 11
9 6 3 3 3 4 3 4 11 15 16 18 19 14 7 15 18 17 20 19 19 20 4 3 5 6 7 7 7 9 8 9 9 10 10 11 12 12 14 14 12 11 13
8 7 4 4 4 4 4 4 5 5 11 14 16 16 15 15 16 18 18 19 19 11 1 3 5 6 7 7 6 7 9 9 10 9 10 11 11 11 14 12 12 11 12
7 8 5 4 3 3 4 5 4 4 4 3 7 9 11 15 15 14 16 13 4 5 2 3 6 6 6 7 6 7 8 9 8 8 9 10 10 11 12 11 11 12 12
8 6 5 4 4 5 4 4 4 4 5 5 5 7 7 12 14 14 10 2 3 3 3 5 6 6 7 6 6 6 7 8 8 8 8 9 10 10 11 11 12 16 15
6 9 9 6 5 5 5 6 5 6 7 6 5 6 1 1 3 4 2 2 3 5 5 5 6 5 6 6 6 5 6 7 7 6 8 8 9 9 10 12 11 12 12
7 7 8 7 7 6 6 6 6 6 6 7 7 5 11 6 7 4 3 3 5 5 5 5 6 5 5 6 5 4 6 7 6 6 6 8 8 9 9 10 11 11 11
7 7 7 7 6 6 7 7 7 7 7 7 7 6 15 6 4 6 5 6 6 5 5 5 6 6 5 6 5 4 6 7 7 5 6 7 8 8 9 9 10 11 11
8 7 8 7 7 8 8 7 7 8 8 8 7 5 5 6 5 6 7 6 5 7 4 5 5 7 4 6 5 5 6 7 6 3 6 7 7 7 8 9 9 10 10
9 9 9 8 7 7 8 8 8 10 8 7 6 6 6 6 6 7 6 6 6 7 4 5 5 8 7 6 5 4 5 7 5 6 7 6 7 8 7 8 8 11 10
9 9 9 8 8 8 8 8 8 8 7 6 6 6 6 6 7 7 6 6 7 7 7 5 5 8 9 9 9 9 8 12 9 7 4 5 8 8 7 7 9 9 10
10 10 9 8 8 8 8 8 8 7 7 6 6 6 7 6 6 6 6 7 7 7 7 4 7 10 10 8 9 11 11 11 10 12 7 4 5 5 5 6 9 8 10
Wind_Direction
236 233 232 229 227 224 230 242 252 280 324 324 329 338 341 343 343 338 335 332 329 324 322 325 323 325 319 317 308 312 303 306 297 305 307 309 308 307 308 303 292 267 261
231 238 238 227 222 222 229 232 211 234 287 302 315 333 337 339 337 334 330 329 326 323 322 328 324 327 322 319 315 310 299 308 301 306 311 313 310 311 306 306 296 281 262
232 243 251 233 219 222 225 217 206 213 232 280 316 320 324 331 323 322 315 317 315 316 321 324 323 322 322 324 317 310 311 303 304 298 308 309 307 312 313 310 308 287 269
231 249 259 242 223 221 221 214 206 205 218 230 242 265 280 307 315 311 316 312 312 317 324 321 316 320 318 312 310 314 310 307 304 299 307 308 309 314 312 318 318 318 286
252 261 261 257 227 220 217 215 213 213 225 217 252 243 259 300 306 310 308 309 313 318 318 316 314 311 308 313 318 312 307 304 302 306 307 307 307 315 315 315 304 312 301
252 262 264 249 230 224 220 214 209 216 225 228 233 255 296 313 312 316 317 311 312 312 311 312 311 305 307 318 317 311 307 309 312 310 304 299 301 304 308 307 305 304 306
243 261 254 241 237 233 219 208 215 222 217 234 224 311 295 301 310 312 313 305 298 294 293 295 309 304 306 305 304 308 315 310 305 301 295 291 296 302 305 299 294 287 286
266 260 259 242 241 240 205 210 204 199 207 213 240 252 267 288 306 308 309 306 285 268 268 274 286 291 297 308 312 323 315 310 306 299 292 289 292 300 293 288 287 280 276
259 258 253 233 237 224 221 212 187 179 194 209 222 241 248 276 302 305 310 296 285 268 268 266 272 279 297 320 328 321 314 310 308 304 303 305 302 297 295 297 286 280 277
258 257 257 231 227 223 219 192 175 174 201 198 240 229 252 270 297 303 303 281 284 284 276 256 281 311 319 328 328 322 319 309 311 318 315 305 303 295 303 297 303 290 269
273 269 259 237 229 217 185 163 167 185 189 241 259 262 267 254 279 299 300 293 264 287 304 308 280 314 325 330 328 328 304 318 326 312 305 306 305 306 306 305 300 291 291
293 282 262 229 214 186 179 173 168 167 208 248 274 290 265 268 276 291 300 303 305 306 302 297 284 318 327 328 333 322 325 334 309 311 308 309 311 312 311 308 301 288 274
303 283 266 230 209 183 178 183 184 187 209 238 235 257 273 270 264 289 302 300 303 300 294 297 324 323 326 324 322 328 337 317 315 314 310 308 306 304 305 307 306 300 282
295 277 257 227 220 205 192 188 196 199 217 243 242 247 252 252 255 260 268 276 278 281 291 322 305 326 324 315 316 324 319 315 312 308 307 305 305 311 312 316 312 309 296
298 280 258 229 213 220 224 208 220 207 208 216 228 225 245 259 250 269 287 287 287 289 328 334 340 328 316 315 318 316 317 317 317 315 312 313 313 315 316 322 314 313 294
301 292 245 235 231 236 230 270 261 255 253 253 257 252 223 264 289 298 293 302 306 313 42 351 312 303 302 311 316 314 315 316 317 315 311 312 313 318 319 322 321 321 313
295 295 279 245 242 231 231 231 258 284 272 269 272 273 279 280 292 291 301 303 308 327 44 288 291 295 296 298 301 305 306 311 312 308 311 312 314 316 323 323 325 325 326
299 287 279 273 245 235 245 248 236 239 257 270 258 262 274 277 283 291 294 315 350 343 199 266 282 281 283 286 294 298 302 306 310 311 310 310 315 318 321 323 325 324 322
305 292 279 272 263 256 254 252 241 245 249 257 294 282 278 280 286 283 292 156 228 256 251 276 265 270 275 276 278 286 287 293 300 304 306 310 315 319 317 318 319 323 322
291 279 274 264 256 249 246 241 239 236 245 244 233 251 251 317 272 260 227 241 250 253 256 251 266 253 261 272 273 276 289 292 296 304 305 308 312 316 314 319 322 322 324
292 286 267 267 256 247 239 233 235 241 246 250 252 242 248 218 261 256 255 246 242 252 256 246 267 260 250 267 255 261 275 285 285 291 299 306 312 313 315 315 315 316 319
285 282 276 265 266 255 249 239 231 227 232 242 251 252 271 273 263 276 274 265 262 241 247 252 264 262 243 262 266 259 278 282 285 280 293 301 306 309 315 316 319 322 326
300 283 279 272 260 257 255 251 250 247 241 236 234 239 238 244 248 250 253 260 258 263 242 243 250 269 243 254 238 232 259 272 272 248 286 295 303 309 314 316 320 324 327
288 284 277 274 266 255 253 254 246 245 247 250 245 237 238 251 249 251 246 257 260 261 241 248 243 255 271 266 260 236 240 257 253 253 250 271 289 302 305 310 315 319 320
290 283 272 271 267 264 262 252 248 247 242 239 247 247 243 239 250 250 253 257 256 260 257 237 243 252 265 267 271 270 261 276 268 248 236 240 263 285 294 304 315 320 324
276 284 273 267 264 260 257 257 256 250 246 242 239 243 244 242 243 244 257 256 255 257 253 241 246 254 267 271 267 275 276 275 269 252 233 223 254 278 290 303 316 320 321